| time (UTC) | temp F | wind direction | speed MPH | gust MPH | rain 1hr in | rain 24hr in | rain mn in | humidity % | barometer mb |
| 20260504010014 | 44 | 208 | 11.0 | 14.0 | 0.00 | 0.00 | 0.00 | 78 | 1020.2 |
| 20260504003018 | 45 | 216 | 12.0 | 15.0 | 0.00 | 0.00 | 0.00 | 72 | 1020.8 |
| 20260504001518 | 45 | 210 | 11.0 | 15.0 | 0.00 | 0.00 | 0.00 | 72 | 1021.0 |
| 20260504000020 | 45 | 208 | 10.0 | 14.0 | 0.00 | 0.00 | 0.00 | 71 | 1021.0 |
| 20260503234518 | 45 | 203 | 9.0 | 14.0 | 0.00 | 0.00 | 0.00 | 70 | 1021.1 |
| 20260503233018 | 45 | 201 | 8.0 | 12.0 | 0.00 | 0.00 | 0.00 | 71 | 1021.2 |
| 20260503231518 | 45 | 200 | 9.0 | 13.0 | 0.00 | 0.00 | 0.00 | 71 | 1021.2 |
| 20260503230019 | 45 | 196 | 8.0 | 10.0 | 0.00 | 0.00 | 0.00 | 70 | 1021.3 |
| 20260503224518 | 45 | 196 | 7.0 | 10.0 | 0.00 | 0.00 | 0.00 | 70 | 1021.4 |
| 20260503223018 | 45 | 198 | 7.0 | 10.0 | 0.00 | 0.00 | 0.00 | 69 | 1021.4 |
| 20260503221517 | 45 | 201 | 7.0 | 10.0 | 0.00 | 0.00 | 0.00 | 68 | 1021.4 |
| 20260503214517 | 45 | 209 | 10.0 | 13.0 | 0.00 | 0.00 | 0.00 | 66 | 1021.3 |
| 20260503213017 | 45 | 206 | 9.0 | 12.0 | 0.00 | 0.00 | 0.00 | 64 | 1021.3 |
| 20260503211517 | 45 | 201 | 7.0 | 11.0 | 0.00 | 0.00 | 0.00 | 64 | 1021.4 |
| 20260503210017 | 46 | 202 | 8.0 | 11.0 | 0.00 | 0.00 | 0.00 | 63 | 1021.3 |
| 20260503204517 | 45 | 206 | 8.0 | 11.0 | 0.00 | 0.00 | 0.00 | 63 | 1021.4 |
| 20260503203017 | 46 | 202 | 7.0 | 11.0 | 0.00 | 0.00 | 0.00 | 63 | 1021.5 |
| 20260503201517 | 45 | 199 | 7.0 | 11.0 | 0.00 | 0.00 | 0.00 | 64 | 1021.6 |
| 20260503200017 | 46 | 189 | 7.0 | 8.0 | 0.00 | 0.00 | 0.00 | 64 | 1021.5 |
| 20260503194517 | 46 | 175 | 8.0 | 11.0 | 0.00 | 0.00 | 0.00 | 63 | 1021.4 |
| 20260503193017 | 46 | 162 | 4.0 | 7.0 | 0.00 | 0.00 | 0.00 | 64 | 1021.3 |
| 20260503190017 | 46 | 167 | 5.0 | 7.0 | 0.00 | 0.00 | 0.00 | 63 | 1021.3 |
| 20260503184515 | 47 | 185 | 4.0 | 7.0 | 0.00 | 0.00 | 0.00 | 60 | 1021.3 |
| 20260503180016 | 47 | 197 | 3.0 | 7.0 | 0.00 | 0.00 | 0.00 | 54 | 1020.7 |
| 20260503174515 | 47 | 187 | 3.0 | 6.0 | 0.00 | 0.00 | 0.00 | 59 | 1021.0 |
| 20260503173015 | 47 | 189 | 4.0 | 5.0 | 0.00 | 0.00 | 0.00 | 62 | 1020.9 |
| 20260503081516 | 49 | 164 | 3.0 | 8.0 | 0.00 | 0.00 | 0.00 | 59 | 1022.8 |
| 20260503071516 | 48 | 170 | 2.0 | 6.0 | 0.00 | 0.00 | 0.00 | 50 | 1022.5 |
| 20260503054515 | 47 | 154 | 0.0 | 1.0 | 0.00 | 0.00 | 0.00 | 45 | 1022.5 |
| 20260503053015 | 47 | 0 | 0.0 | 0.0 | 0.00 | 0.00 | 0.00 | 45 | 1022.5 |
| 20260503051515 | 46 | 0 | 0.0 | 0.0 | 0.00 | 0.00 | 0.00 | 47 | 1022.6 |
| 20260503050015 | 46 | 0 | 0.0 | 0.0 | 0.00 | 0.00 | 0.00 | 48 | 1022.7 |
| 20260503044514 | 47 | 161 | 2.0 | 5.0 | 0.00 | 0.00 | 0.00 | 47 | 1022.3 |
| 20260503043014 | 47 | 164 | 0.0 | 2.0 | 0.00 | 0.00 | 0.00 | 45 | 1022.3 |
| 20260503041514 | 47 | 165 | 2.0 | 5.0 | 0.00 | 0.00 | 0.00 | 46 | 1022.3 |
| 20260503034514 | 47 | 177 | 3.0 | 5.0 | 0.00 | 0.00 | 0.00 | 44 | 1022.4 |
| 20260503033014 | 47 | 151 | 1.0 | 4.0 | 0.00 | 0.00 | 0.00 | 44 | 1022.4 |
| 20260503031514 | 47 | 144 | 0.0 | 2.0 | 0.00 | 0.00 | 0.00 | 45 | 1022.5 |
| 20260503030014 | 47 | 144 | 0.0 | 1.0 | 0.00 | 0.00 | 0.00 | 44 | 1022.7 |
| 20260503023014 | 47 | 165 | 0.0 | 1.0 | 0.00 | 0.00 | 0.00 | 43 | 1022.9 |
| 20260503021513 | 47 | 0 | 0.0 | 0.0 | 0.00 | 0.00 | 0.00 | 43 | 1023.0 |
| 20260503020014 | 47 | 0 | 0.0 | 0.0 | 0.00 | 0.00 | 0.00 | 43 | 1023.1 |
| 20260503014513 | 47 | 171 | 0.0 | 1.0 | 0.00 | 0.00 | 0.00 | 43 | 1022.8 |
| 20260503013015 | 47 | 0 | 0.0 | 0.0 | 0.00 | 0.00 | 0.00 | 41 | 1023.3 |
| 20260503011513 | 47 | 0 | 0.0 | 0.0 | 0.00 | 0.00 | 0.00 | 40 | 1023.5 |